Find Starlink 34362

NORAD ID: 64292 Int'l Des: 2025-123 Owner: SPXS Country: US Constellation: starlink operational
LEOCIRCULAR

現在のビュー

3D地球を読み込み中...

About Starlink 34362

Starlink 34362 (NORAD 64292) is a starlink constellation satellite (v2 mini) launched Jun 8, 2025 by SPXS of US. It operates in LEO, CIRCULAR orbit with a mass of 575.00 kg.

次回通過

Passes for default location (London). Set your location on the main map for personalized predictions.

高度履歴

Loading altitude history...

軌道要素

1 64292U 25123B 26227.22601080 .00001269 00000-0 11407-3 0 9998
2 64292 70.0011 154.8174 0002642 269.5595 90.5261 14.98338404 66581
Epoch: Aug 15, 2026 • Age: 11 hours

現在のステータス

高度 579.0 km
遠地点 / 近地点 N/A
速度 7.57 km/s
衛星直下点 -21.87°S, 138.88°E
打ち上げ日 Jun 8, 2025
運用期間 1.1 years
タイプ internet

技術仕様

分類 Payload
質量 575.00 kg
乾燥質量 530.00 kg
総質量 575.00 kg
長さ 0.30 m
直径 4.10 m
スパン 29.00 m
形状 Box + pan
製造者 SPXS
バスタイプ Starlink V2MO
フェーズステータス In Orbit
所有者/国 SPXS/US

Most Searched